Regional Weather Roundup
Issued by NWS

Home | Current Version | Previous Version | Text Only | Print | Product List | Glossary Off
Versions: 1 2 3 4 5 6 7 8 9 10 11 12 13 14 15 16 17 18 19 20 21 22 23 24 25 26 27 28 29 30 31 32 33 34 35 36 37 38 39 40 41 42 43 44 45 46 47 48 49 50

000
ASUS43 KLOT 302058
RWRIL

ILLINOIS REGIONAL WEATHER ROUNDUP
NATIONAL WEATHER SERVICE CHICAGO/ROMEOVILLE IL
400 PM CDT TUE SEP 30 2014

NOTE: "FAIR" INDICATES FEW OR NO CLOUDS BELOW 12,000 FEET WITH NO
SIGNIFICANT WEATHER AND/OR OBSTRUCTIONS TO VISIBILITY.

* THESE STATIONS ARE NOT UNDER NWS QUALITY CONTROL. THEY ALSO MAY NOT
  REPORT WEATHER SUCH AS PRECIPITATION OR FOG.

ILZ001-002-007-009-015-016-024-302200-
NORTHWEST ILLINOIS

CITY           SKY/WX    TMP DP  RH WIND       PRES   REMARKS
MOLINE         NOT AVBL
$$

ILZ003-004-008-010-011-017-018-302200-
NORTH CENTRAL ILLINOIS

CITY           SKY/WX    TMP DP  RH WIND       PRES   REMARKS
ROCKFORD       NOT AVBL
$$

ILZ005-006-012>014-019>023-302200-
NORTHEAST ILLINOIS

CITY           SKY/WX    TMP DP  RH WIND       PRES   REMARKS
CHICAGO-OHARE  CLOUDY    58  46  64 NE15      30.01F
CHICAGO-MIDWAY NOT AVBL
AURORA         MOSUNNY   60  46  59 NE8       30.01S
WAUKEGAN       NOT AVBL
DUPAGE AIRPORT CLOUDY    57  46  66 E12       30.00F
WHEELING       CLOUDY    55  48  77 NE10      30.02F
NORTHERLY ISL    N/A     56  49  77 N16         N/A
$$

LMZ740>746-302200-
SOUTHERN LAKE MICHIGAN

STATION/POSITION SKY/WX   TEMP    WIND        PRES    VSBY  WAVE
                          AIR SEA DIR/SP/G                  HT/PER
                          (F)     (DEG/KT/KT) (MB)    (MI)  (FT/S)
SOUTHERN BUOY              54 62  360/ 16/ 19 1016.5F         4/ 7
WAUKEGAN HARBOR            52      10/ 16/ 19   N/A
HARRISON CRIB              53     360/ 15/ 18   N/A
BURNHAM HARBOR             54     360/ 12/ 13   N/A
CALUMET HARBOR             57     340/ 10/ 13 1015.2F
MICHIGAN CITY              54     350/ 14/ 19   N/A
MICHIGAN CITY 6N           55 65   20/ 12/ 17   N/A           5/ 2
ST. JOSEPH                 54 62   30/ 10/ 14   N/A           4/ 2
$$

ILZ025>027-034>036-040-047-049-050-058-095>099-302200-
WEST-CENTRAL ILLINOIS

CITY           SKY/WX    TMP DP  RH WIND       PRES   REMARKS
$$

ILZ028>032-037-038-041>044-048-051>054-059>061-302200-
CENTRAL ILLINOIS

CITY           SKY/WX    TMP DP  RH WIND       PRES   REMARKS
PEORIA         PTSUNNY   70  53  54 NE7       29.95F
SPRINGFIELD    SUNNY     76  58  53 CALM      29.93F
TAYLORVILLE    NOT AVBL
$$

ILZ033-039-045-046-055>057-062-063-302200-
EAST-CENTRAL ILLINOIS

CITY           SKY/WX    TMP DP  RH WIND       PRES   REMARKS
CHAMPAIGN      PTSUNNY   72  56  57 N9        29.95S
$$

ILZ079-100>102-302200-
SOUTHWEST ILLINOIS

CITY           SKY/WX    TMP DP  RH WIND       PRES   REMARKS
CAHOKIA*       PTSUNNY   86  55  34 SE7       29.88F HX  84
$$

ILZ064>066-069>071-074>076-080>082-084>086-088>090-092>094-302200-
SOUTH-CENTRAL ILLINOIS

CITY           SKY/WX    TMP DP  RH WIND       PRES   REMARKS
CARBONDALE     MOSUNNY   85  52  32 W13       29.88F HX  83
MARION         MOSUNNY   82  57  42 NE5       29.90F HX  82
$$

ILZ067-068-072-073-078-083-087-091-302200-
SOUTHEAST ILLINOIS

CITY           SKY/WX    TMP DP  RH WIND       PRES   REMARKS
$$

ABBREVIATIONS USED IN REMARKS
   TC - TEMPERATURE IN CELSIUS
  WCI - WIND CHILL INDEX
   HX - HEAT INDEX
  VSB - VISIBILITY
$$



USA.gov is the U.S. government's official web portal to all federal, state and local government web resources and services.